Regional Weather Roundup
Issued by NWS

Home | Current Version | Previous Version | Text Only | Print | Product List | Glossary On
Versions: 1 2 3 4 5 6 7 8 9 10 11 12 13 14 15 16 17 18 19 20 21 22 23 24 25 26 27 28 29 30 31 32 33 34 35 36 37 38 39 40 41 42 43 44 45 46 47 48 49 50
000
ASUS45 KABQ 060210
RWRNM
WEATHER ROUNDUP FOR NEW MEXICO
NATIONAL WEATHER SERVICE ALBUQUERQUE NM
800 PM MDT TUE MAY 05 2015

NOTE: "FAIR" MEANS FEW OR NO CLOUDS BELOW 12,000 FEET AGL WITH NO
       SIGNIFICANT WEATHER OR OBSTRUCTIONS TO VISION.

      THIS PRODUCT IS RELEASED AS TWO VERSIONS.  ONE VERSION NEAR
      THE TOP OF THE HOUR CONTAINING PRELIMINARY DATA FROM ALBUQUERQUE
      AND OTHER STATIONS.  A FINAL VERSION WITH ADDITIONAL DATA IS
      ISSUED ABOUT 10 MINUTES AFTER THE HOUR.

NMZ501-503-504-510>518-060300-
NORTHWEST PLATEAU/NORTHCENTRAL MOUNTAINS

CITY           SKY/WX    TMP DP  RH WIND       PRES   REMARKS
FARMINGTON     MOCLDY    54  44  69 W7        29.86R
LOS ALAMOS     CLOUDY    49  40  69 SW13G22   29.95R
SANTA FE       LGT RAIN  48  42  80 W12G25    29.92R
TAOS           CLOUDY    48  36  61 W5        29.93R
ANGEL FIRE     CLOUDY    42  36  79 CALM      29.92

$$
NMZ402-403-502-505>509-060300-
WESTCENTRAL MOUNTAINS/SOUTHWEST MOUNTAINS

CITY           SKY/WX    TMP DP  RH WIND       PRES   REMARKS
GALLUP         LGT RAIN  50  45  83 W18G24    29.96R
GRANTS         LGT RAIN  47  44  91 NW9G18    29.99R
SILVER CITY      N/A     63  37  39 NW17      29.98R

$$
NMZ407-409-411-412-060300-
SOUTHERN DESERTS

CITY           SKY/WX    TMP DP  RH WIND       PRES   REMARKS
LORDSBURG      FAIR      68  37  32 NW15G23   29.93R
DEMING         CLEAR     70  34  26 W18G26    29.90R
LAS CRUCES     CLEAR     69  31  24 W12G17    29.92R
HOLLOMAN AFB   MOCLDY    71  36  27 W16       29.86R
ALAMOGORDO     MOCLDY    72  32  23 SW17G23   29.88R
T OR C         PTCLDY    68  34  28 W15       29.89R

$$
NMZ519>523-060300-
CENTRAL VALLEYS/CENTRAL HIGHLANDS

CITY           SKY/WX    TMP DP  RH WIND       PRES   REMARKS
ALBUQUERQUE    CLOUDY    54  48  80 SE6       29.92S
DOUBLE EAGLE   MOCLDY    52  48  87 S7        29.94R
MORIARTY ARPT  CLOUDY    52  41  66 W18       29.96R
CLINES CORNERS PTCLDY    46  41  82 W15       29.94R
BELEN          CLOUDY    55  47  74 NE7       29.92R
SOCORRO        CLOUDY    59  49  69 CALM      29.90R

$$
NMZ524>526-539-540-060300-
SOUTHCENTRAL MOUNTAINS

CITY           SKY/WX    TMP DP  RH WIND       PRES   REMARKS
RUIDOSO        PTCLDY    55  32  41 W14       29.99R

$$
NMZ527>531-060300-
NORTHEAST HIGHLANDS/NORTHEAST PLAINS

CITY           SKY/WX    TMP DP  RH WIND       PRES   REMARKS
LAS VEGAS      PTCLDY    50  38  63 W14       29.90R
RATON          MOCLDY    52  43  71 S9        29.81R
CLAYTON        CLOUDY    53  48  83 S10       29.81R

$$
NMZ532>537-060300-
EASTCENTRAL PLAINS

CITY           SKY/WX    TMP DP  RH WIND       PRES   REMARKS
TUCUMCARI      PTCLDY    60  48  64 SW12      29.79R
CANNON AFB     MOCLDY    58  49  73 SW6       29.85S
CLOVIS AIRPORT MOCLDY    57  48  72 S5        29.86R

$$
NMZ028-029-538-060300-
SOUTHEAST PLAINS

CITY           SKY/WX    TMP DP  RH WIND       PRES   REMARKS
ROSWELL        PTCLDY    63  46  54 SW8       29.81R
ARTESIA        CLEAR     72  39  30 SW13      29.84R
CARLSBAD       CLEAR     67  44  43 SW12      29.83R
HOBBS          CLEAR     64  46  52 SW7       29.87R


$$


USA.gov is the U.S. government's official web portal to all federal, state and local government web resources and services.